Content
SEND FEEDBACK

Daily
Averages
Monthly
Summary
Brazil

CUIABA, MATO GROSSO


Home > South America > Brazil > Mato Grosso
Elevation: 623 feet     Latitude: 15 38S     Longitude: 056 06W

WEATHER
 
SELECT A DAY
Number of Records: 171,686;   Date Range: 6/30/96 - 11/24/14
 
SHARE

PRINT THIS DATA

[ ← Previous Day ]
WEATHER ALMANAC - DECEMBER 28, 2013
[ Next Day → ]
[ °C ]   °F
Weather ElementAverageHighLow
Temperature80.6 °F93.2 °F (3:00 pm)75 °F (9:00 pm)
Dewpoint71.1 °F75.2 °F (3:00 pm)68 °F (5:00 pm)
Humidity72.7 %89 % (7:00 pm)49 % (3:00 pm)
Barometer29.83 in29.92 in (10:00 am)29.74 in (3:00 pm)
Wind Speed7.9 mph16.1 mph (10:00 am)
Weather ElementAverage
Visibility7.1 mi
Wind DirectionWNW (303.7 °)

Weather ElementTotal
Precipitation---
Cooling Degree Days19.1 (Base 65)
Growing Degree Days34.1 (Base 50)
Averaged from 27 records on December 28, 2013
WEATHER CONDITIONS BREAKOUT
WIND DIRECTION BREAKOUT
WEATHER BY HOUR - DECEMBER 28, 2013
[ °C ]   °F
Local TimeTemperatureDewpointHumidityBarometerVisibilityWind DirectionWind SpeedGust SpeedPrecipitationEventsConditions
1:00 AM80.6 °F69.8 °F70 %29.89 in6.2 miNW (320°)5.8 mphPartly Cloudy
2:00 AM77.0 °F69.8 °F78 %29.86 inNNW (340°)4.6 mphClear
3:00 AM76.0 °F71.0 °F78 %29.81 in12.0 miNNW (330°)6.9 mph
3:00 AM77.0 °F69.8 °F78 %29.83 inNNW (330°)6.9 mphClear
4:00 AM77.0 °F69.8 °F78 %29.83 inNW (320°)9.2 mphClear
5:00 AM77.0 °F69.8 °F78 %29.83 inNorth (360°)4.6 mphClear
6:00 AM77.0 °F69.8 °F78 %29.83 in6.2 miNorth (360°)4.6 mphScattered Clouds
7:00 AM80.6 °F69.8 °F70 %29.83 in6.2 miNorth (360°)4.6 mphScattered Clouds
8:00 AM78.8 °F71.6 °F78 %29.86 in6.2 miNW (320°)10.4 mphPartly Cloudy
9:00 AM82.0 °F71.0 °F62 %29.88 in12.0 miNW (320°)11.5 mphScattered Clouds
9:00 AM82.4 °F71.6 °F70 %29.89 in6.2 miNW (320°)11.5 mphScattered Clouds
10:00 AM84.2 °F71.6 °F66 %29.92 in6.2 miNW (310°)16.1 mphScattered Clouds
11:00 AM86.0 °F71.6 °F62 %29.89 in6.2 miNNW (330°)11.5 mphScattered Clouds
12:00 PM89.6 °F71.6 °F55 %29.86 in6.2 miWNW (290°)11.5 mphPartly Cloudy
1:00 PM89.6 °F73.4 °F59 %29.83 in6.2 miNorth (350°)10.4 mphPartly Cloudy
2:00 PM89.6 °F71.6 °F55 %29.80 in6.2 miWest (280°)11.5 mphPartly Cloudy
3:00 PM92.0 °F75.0 °F49 %29.74 in12.0 miNW (320°)6.9 mphMostly Cloudy
3:00 PM93.2 °F75.2 °F56 %29.77 in6.2 miNW (320°)6.9 mphPartly Cloudy
4:00 PM80.6 °F69.8 °F70 %29.77 in5.0 miENE (60°)12.7 mphThunderstormThunderstorm
5:00 PM77.0 °F68.0 °F74 %29.77 in5.0 miNNW (330°)6.9 mphThunderstormThunderstorm
6:00 PM75.2 °F69.8 °F83 %6.2 miNorth (350°)4.6 mphRainLight Rain
7:00 PM75.2 °F71.6 °F89 %29.80 in6.2 miWNW (300°)6.9 mphMostly Cloudy
8:00 PM75.2 °F71.6 °F89 %29.80 in6.2 miNNE (20°)2.3 mphMostly Cloudy
9:00 PM75.0 °F71.0 °F82 %29.81 in12.0 miNW (320°)8.1 mphScattered Clouds
9:00 PM75.2 °F69.8 °F83 %29.83 in6.2 miNW (320°)8.1 mphPartly Cloudy
10:00 PM75.2 °F71.6 °F89 %29.86 in6.2 miNNW (330°)2.3 mphPartly Cloudy
11:00 PM77.0 °F71.6 °F83 %29.89 in6.2 miWNW (290°)5.8 mphScattered Clouds
Hourly data recorded from SBCY, located miles away from Cuiaba, Mato Grosso







STORIES FROM OUR PARTNERS